K8GLX Weather Reports


time (UTC)temp
C
wind
direction
speed
KPH
gust
KPH
rain 1hr
cm
rain 24hr
cm
rain mn
cm
humidity
%
barometer
mb
20260503233709 15 244 6.4 30.6 0.00 0.00 0.00 38 1011.5
20260503233545 15 221 3.2 24.1 0.00 0.00 0.00 38 1011.3
20260503232839 16 248 9.7 27.4 0.00 0.00 0.00 38 1011.3
20260503231900 15 259 4.8 20.9 0.00 0.00 0.00 38 1011.2
20260503231421 15 260 16.1 27.4 0.00 0.00 0.00 37 1011.5
20260503230709 16 254 11.3 30.6 0.00 0.00 0.00 37 1011.5
20260503225709 16 225 9.7 30.6 0.00 0.00 0.00 37 1011.7
20260503225421 15 261 8.0 30.6 0.00 0.00 0.00 37 1011.4
20260503224901 15 251 4.8 27.4 0.00 0.00 0.00 38 1011.3
20260503224423 16 230 6.4 19.3 0.00 0.00 0.00 38 1011.3
20260503223709 16 241 9.7 22.5 0.00 0.00 0.00 38 1011.6
20260503222708 16 266 4.8 24.1 0.00 0.00 0.00 38 1011.7
20260503221709 16 254 16.1 22.5 0.00 0.00 0.00 38 1011.5
20260503220709 16 245 6.4 25.7 0.00 0.00 0.00 37 1011.7
20260503220435 16 260 12.9 33.8 0.00 0.00 0.00 37 1011.7
20260503215709 15 259 6.4 33.8 0.00 0.00 0.00 38 1011.9
20260503215422 16 263 14.5 32.2 0.00 0.00 0.00 38 1011.7
20260503214709 15 252 12.9 32.2 0.00 0.00 0.00 37 1011.9
20260503213708 16 258 20.9 30.6 0.00 0.00 0.00 37 1011.5
20260503213420 16 273 16.1 32.2 0.00 0.00 0.00 37 1011.6
20260503212708 16 263 17.7 32.2 0.00 0.00 0.00 37 1011.6
20260503212422 16 261 11.3 27.4 0.00 0.00 0.00 37 1011.5
20260503211708 16 258 25.7 27.4 0.00 0.00 0.00 36 1011.7
20260503210708 16 241 11.3 32.2 0.00 0.00 0.00 36 1011.7
20260503210422 16 265 11.3 35.4 0.00 0.00 0.00 35 1011.5
20260503205708 16 242 19.3 35.4 0.00 0.00 0.00 35 1011.4
20260503204709 16 260 11.3 24.1 0.00 0.00 0.00 36 1011.5
20260503204422 16 253 16.1 27.4 0.00 0.00 0.00 35 1011.6
20260503203712 16 204 19.3 27.4 0.00 0.00 0.00 35 1011.6
20260503202708 16 278 14.5 25.7 0.00 0.00 0.00 36 1011.5
20260503201709 16 254 16.1 30.6 0.00 0.00 0.00 36 1011.8
20260503200709 16 271 11.3 25.7 0.00 0.00 0.00 36 1012.2
20260503195708 16 275 24.1 25.7 0.00 0.00 0.00 37 1012.1
20260503194708 16 273 14.5 29.0 0.00 0.00 0.00 38 1012.4
20260503194422 15 261 14.5 29.0 0.00 0.00 0.00 40 1012.3
20260503193708 15 238 9.7 29.0 0.00 0.00 0.00 40 1012.5
20260503192713 15 235 14.5 27.4 0.00 0.00 0.00 40 1012.8
20260503192608 15 242 9.7 22.5 0.00 0.00 0.00 41 1012.9
20260503191907 16 261 11.3 24.1 0.00 0.00 0.00 42 1012.8
20260503191421 15 257 12.9 24.1 0.00 0.00 0.00 41 1013.0
20260503190709 15 284 14.5 27.4 0.00 0.00 0.00 40 1013.2
20260503190421 15 264 22.5 27.4 0.00 0.00 0.00 42 1013.1
20260503185709 15 281 20.9 30.6 0.00 0.00 0.00 41 1013.1
20260503185421 15 274 19.3 30.6 0.00 0.00 0.00 40 1013.2
20260503184859 15 255 11.3 24.1 0.00 0.00 0.00 40 1013.3
20260503184421 15 236 16.1 22.5 0.00 0.00 0.00 41 1013.3
20260503183708 16 271 17.7 30.6 0.00 0.00 0.00 39 1013.3
20260503182709 15 272 11.3 29.0 0.00 0.00 0.00 40 1013.3
20260503181709 15 274 17.7 30.6 0.00 0.00 0.00 40 1013.5
20260503180709 15 247 9.7 29.0 0.00 0.00 0.00 39 1013.5
20260503175709 15 255 16.1 32.2 0.00 0.00 0.00 38 1013.8
20260503174708 15 255 6.4 27.4 0.00 0.00 0.00 38 1013.6
20260503173708 15 272 17.7 27.4 0.00 0.00 0.00 38 1013.8
20260503172709 14 248 24.1 27.4 0.00 0.00 0.00 39 1014.0
20260503171709 14 256 14.5 30.6 0.00 0.00 0.00 41 1014.1
20260503171421 14 273 14.5 30.6 0.00 0.00 0.00 39 1014.0
20260503170709 14 266 11.3 25.7 0.00 0.00 0.00 39 1014.2
20260503150709 12 241 6.4 25.7 0.00 0.00 0.00 41 1015.4
20260503130709 8 235 6.4 17.7 0.00 0.00 0.00 44 1016.1
20260503110708 4 237 4.8 11.3 0.00 0.03 0.00 69 1015.5
20260503110422 4 167 4.8 11.3 0.00 0.03 0.00 70 1015.6
20260503081421 3 139 3.2 9.7 0.00 0.05 0.00 75 1015.6
20260503080708 3 216 4.8 9.7 0.00 0.05 0.00 75 1015.6
20260503080421 3 138 1.6 9.7 0.00 0.05 0.00 75 1015.6
20260503072708 3 213 4.8 8.0 0.00 0.08 0.00 76 1015.4
20260503071709 3 140 1.6 9.7 0.00 0.10 0.00 76 1015.7
20260503070708 3 164 1.6 8.0 0.00 0.10 0.00 76 1015.7
20260503054708 3 184 4.8 6.4 0.00 0.13 0.00 74 1016.0
20260503053708 3 195 3.2 6.4 0.00 0.15 0.00 73 1016.0
20260503053422 3 209 3.2 4.8 0.00 0.15 0.00 73 1016.2
20260503052709 3 174 4.8 4.8 0.00 0.18 0.00 73 1016.1
20260503051711 3 0 1.6 4.8 0.00 0.18 0.00 73 1016.2
20260503050709 3 359 0.0 4.8 0.00 0.18 0.00 71 1016.1
20260503050422 3 217 0.0 4.8 0.00 0.18 0.00 71 1016.3
20260503045708 4 310 3.2 4.8 0.00 0.18 0.00 71 1016.3
20260503044709 4 126 0.0 4.8 0.00 0.18 0.00 71 1016.3
20260503043709 4 86 0.0 9.7 0.00 0.18 0.00 71 1016.2
20260503042709 4 236 6.4 9.7 0.00 0.18 0.00 70 1016.4
20260503041709 5 227 4.8 9.7 0.00 0.20 0.00 70 1016.5
20260503040708 5 215 6.4 9.7 0.00 0.20 0.00 70 1016.1
20260503035709 5 221 6.4 9.7 0.00 0.23 0.20 70 1016.6
20260503034709 5 225 8.0 11.3 0.00 0.23 0.20 70 1016.4
20260503033709 5 258 4.8 11.3 0.00 0.23 0.20 69 1016.5
20260503033422 5 233 6.4 11.3 0.00 0.23 0.20 68 1016.5
20260503032709 5 216 9.7 9.7 0.00 0.23 0.20 68 1016.3
20260503031708 5 209 6.4 9.7 0.00 0.23 0.20 67 1016.5
20260503030709 5 216 6.4 9.7 0.00 0.23 0.20 67 1016.4
20260503030422 6 203 6.4 9.7 0.00 0.23 0.20 66 1016.6
20260503025709 6 213 6.4 9.7 0.00 0.23 0.20 66 1016.6
20260503024709 6 191 6.4 9.7 0.00 0.23 0.20 66 1016.7
20260503023709 6 207 6.4 9.7 0.00 0.23 0.20 65 1016.8
20260503022709 6 235 6.4 9.7 0.00 0.23 0.20 66 1017.0
20260503021708 6 238 3.2 9.7 0.00 0.23 0.20 65 1016.7
20260503020708 6 214 6.4 9.7 0.00 0.23 0.20 65 1016.8
20260503015709 6 208 6.4 8.0 0.00 0.23 0.20 64 1016.9
20260503014709 6 252 3.2 8.0 0.00 0.23 0.20 63 1016.9
20260503013709 6 271 3.2 12.9 0.00 0.23 0.20 62 1016.8
20260503012709 6 267 8.0 14.5 0.00 0.23 0.20 63 1017.0
20260503011708 6 274 4.8 11.3 0.00 0.23 0.20 62 1016.6
20260503010709 6 258 4.8 14.5 0.00 0.23 0.20 61 1016.9
20260503005708 6 261 8.0 11.3 0.00 0.23 0.20 61 1016.8
20260503004708 6 262 9.7 12.9 0.00 0.23 0.20 60 1016.9
20260503003709 6 264 6.4 12.9 0.00 0.23 0.20 58 1016.8
20260503003422 6 262 9.7 12.9 0.00 0.23 0.20 58 1016.7
20260503002708 6 273 11.3 12.9 0.00 0.23 0.20 57 1016.8
20260503001709 6 282 6.4 9.7 0.00 0.23 0.20 60 1016.7
20260503001422 6 286 6.4 11.3 0.00 0.23 0.20 59 1016.7
20260503000709 6 282 6.4 12.9 0.00 0.23 0.20 59 1017.0
20260502235708 6 248 6.4 12.9 0.00 0.23 0.20 61 1016.7
20260502235422 6 257 11.3 12.9 0.00 0.23 0.20 61 1016.7
20260502234709 6 262 9.7 12.9 0.00 0.23 0.20 60 1016.6